Погода в Холмской

Россия / Краснодарский край     44°50′52″N   38°23′21″E
В апреле 2022 года жителям России запретили посещать сайт meteo.paraplan.net по решению Генеральной прокуратуры. Аудитория сайта уменьшилась в 10 раз. Владельцы сайта не видят смысла в поддержке погодного сервера в таких условиях. Сайт будет закрыт в октябре.
темп.,
°C
ветер,
м/с
пор.,
м/с
влажн.,
%
обл.,
%
осадки,
мм/ч
давл.,
гПа
погр.,
м
3 октября, пн
пн300:00+16зсз51093100 12.3 1006705
03:00+14з61184100 13.6 1009755
06:00+11юз378814 0.0 1011210
09:00+15зюз366958 0.1 1014944
12:00+18з464964 0.1 10141840
15:00+19зюз454627 0.1 10141789
18:00+14юз2269100 0.0 101518
21:00+13юв117987 0.0 101510
4 октября, вт
вт400:00+12ююв1181100 0.0 101411
03:00+12з1171100 0.0 101410
06:00+11юз117518 0.0 101410
09:00+17зсз115472 0.0 1015301
12:00+21сз23406 0.0 10141391
15:00+22ссз333828 0.0 10141827
18:00+16сз356691 0.0 1017143
21:00+12зюз11805 0.0 101817
5 октября, ср
ср500:00+12з118029 0.0 101912
03:00+12ююз1180100 0.0 102010
06:00+12з1185100 0.0 102111
09:00+16сз127212 0.0 1023439
12:00+17ссз336799 0.2 10231079
15:00+18сз335568 0.3 10231078
18:00+13ссз37560 0.0 1025155
21:00+10з22730 0.0 102716
6 октября, чт
чт600:00+9з11780 0.0 102610
03:00+8зюз11820 0.0 102610
06:00+8св00840 0.0 102610
09:00+13ссв136389 0.0 1026330
12:00+17ссв344588 0.0 10251268
15:00+18ссв34395 0.0 10251507
18:00+13с22570 0.0 102518
21:00+10сз11710 0.0 102614
7 октября, пт
пт700:00+8сз11740 0.0 102614
03:00+8с11780 0.0 102614
06:00+7св11795 0.0 102614
09:00+13всв36565 0.0 1025363
12:00+18всв46405 0.0 1023963
15:00+20св563445 0.0 10221194
18:00+14св3449100 0.0 102155
21:00+12св235645 0.0 102138